• Em Portugal
  • Lista de países
  • Para 7 dias
  • Temperatura da água
  • Mapas de satélite
  • Mapa do tempo
  • Widgets de tempo
  • user-avatar
    Iniciar Sessão

    Previsão horária em Konstantyna

    Hoje, 23 Maio, Quarta-feira

    Tempo Temperatura Precipitação Vento Pressão Humidade
    00:00 +14°C° 0 mm 1 m/s 710 mmHg 87%
    01:00 +14°C° 0 mm 1 m/s 710 mmHg 87%
    02:00 +14°C° 0 mm 1 m/s 710 mmHg 87%
    03:00 +14°C° 0 mm 1 m/s 710 mmHg 86%
    04:00 +15°C° 0 mm 1 m/s 711 mmHg 82%
    05:00 +16°C° 0 mm 1 m/s 711 mmHg 78%
    06:00 +18°C° 0 mm 1 m/s 711 mmHg 73%
    07:00 +20°C° 0 mm 1 m/s 712 mmHg 66%
    08:00 +21°C° 0 mm 1 m/s 712 mmHg 59%
    09:00 +23°C° 0 mm 1 m/s 712 mmHg 52%
    10:00 +24°C° 0 mm 1 m/s 713 mmHg 47%
    11:00 +25°C° 0 mm 1 m/s 713 mmHg 42%
    12:00 +26°C° 0 mm 2 m/s 713 mmHg 37%
    13:00 +27°C° 0 mm 2 m/s 713 mmHg 38%
    14:00 +27°C° 0 mm 3 m/s 712 mmHg 38%
    15:00 +27°C° 0 mm 3 m/s 712 mmHg 39%
    16:00 +26°C° 0 mm 3 m/s 712 mmHg 46%
    17:00 +25°C° 0 mm 2 m/s 712 mmHg 53%
    18:00 +23°C° 0 mm 2 m/s 712 mmHg 61%
    19:00 +21°C° 0 mm 2 m/s 712 mmHg 66%
    20:00 +19°C° 0 mm 2 m/s 712 mmHg 71%
    21:00 +19°C° 0 mm 1 m/s 712 mmHg 76%
    22:00 +19°C° 0 mm 1 m/s 712 mmHg 75%
    23:00 +19°C° 0 mm 1 m/s 712 mmHg 75%

    Amanhã, 24 Maio, Quinta-feira

    Tempo Temperatura Precipitação Vento Pressão Humidade
    00:00 +18°C° 0 mm 2 m/s 712 mmHg 74%
    01:00 +19°C° 0 mm 1 m/s 711 mmHg 73%
    02:00 +19°C° 0 mm 1 m/s 711 mmHg 72%
    03:00 +18°C° 0 mm 1 m/s 711 mmHg 71%
    04:00 +19°C° 0 mm 2 m/s 711 mmHg 67%
    05:00 +20°C° 0 mm 2 m/s 711 mmHg 63%
    06:00 +21°C° 0 mm 2 m/s 711 mmHg 59%
    07:00 +25°C° 0 mm 2 m/s 711 mmHg 51%
    08:00 +27°C° 0 mm 2 m/s 712 mmHg 43%
    09:00 +29°C° 0 mm 2 m/s 712 mmHg 35%
    10:00 +30°C° 0 mm 2 m/s 712 mmHg 32%
    11:00 +32°C° 0 mm 2 m/s 712 mmHg 29%
    12:00 +34°C° 0 mm 2 m/s 712 mmHg 26%
    13:00 +32°C° 0 mm 2 m/s 712 mmHg 28%
    14:00 +32°C° 0 mm 2 m/s 711 mmHg 29%
    15:00 +32°C° 0 mm 2 m/s 711 mmHg 31%
    16:00 +31°C° 0 mm 2 m/s 711 mmHg 39%
    17:00 +29°C° 0 mm 2 m/s 711 mmHg 47%
    18:00 +28°C° 0 mm 2 m/s 711 mmHg 56%
    19:00 +26°C° 0 mm 2 m/s 711 mmHg 59%
    20:00 +25°C° 0 mm 2 m/s 711 mmHg 63%
    21:00 +23°C° 0 mm 1 m/s 711 mmHg 66%
    22:00 +23°C° 0 mm 2 m/s 710 mmHg 64%
    23:00 +23°C° 0 mm 2 m/s 710 mmHg 61%

    Depois de amanhã, 25 Maio, Sexta-feira

    Tempo Temperatura Precipitação Vento Pressão Humidade
    00:00 +22°C° 0 mm 3 m/s 709 mmHg 59%
    01:00 +21°C° 0 mm 2 m/s 709 mmHg 57%
    02:00 +21°C° 0 mm 2 m/s 709 mmHg 56%
    03:00 +21°C° 0 mm 2 m/s 708 mmHg 54%
    04:00 +23°C° 0 mm 2 m/s 709 mmHg 53%
    05:00 +24°C° 0 mm 2 m/s 709 mmHg 52%
    06:00 +25°C° 0 mm 2 m/s 709 mmHg 51%
    07:00 +27°C° 0 mm 2 m/s 710 mmHg 44%
    08:00 +29°C° 0 mm 3 m/s 710 mmHg 38%
    09:00 +33°C° 0 mm 3 m/s 711 mmHg 31%
    10:00 +34°C° 0 mm 3 m/s 711 mmHg 28%
    11:00 +35°C° 0 mm 3 m/s 711 mmHg 25%
    12:00 +36°C° 0 mm 4 m/s 711 mmHg 22%
    13:00 +36°C° 0 mm 4 m/s 710 mmHg 22%
    14:00 +36°C° 0 mm 4 m/s 710 mmHg 22%
    15:00 +36°C° 0 mm 4 m/s 710 mmHg 22%
    16:00 +34°C° 0 mm 3 m/s 709 mmHg 28%
    17:00 +33°C° 0 mm 3 m/s 709 mmHg 35%
    18:00 +30°C° 0 mm 3 m/s 709 mmHg 41%
    19:00 +28°C° 0 mm 2 m/s 709 mmHg 43%
    20:00 +27°C° 0 mm 2 m/s 709 mmHg 44%
    21:00 +25°C° 0 mm 1 m/s 709 mmHg 46%
    22:00 +25°C° 0 mm 2 m/s 709 mmHg 45%
    23:00 +25°C° 0 mm 2 m/s 709 mmHg 43%

    26 Maio, Sábado

    Tempo Temperatura Precipitação Vento Pressão Humidade
    00:00 +25°C° 0 mm 2 m/s 708 mmHg 42%
    01:00 +25°C° 0 mm 2 m/s 708 mmHg 41%
    02:00 +25°C° 0 mm 2 m/s 708 mmHg 40%
    03:00 +25°C° 0 mm 2 m/s 708 mmHg 39%
    04:00 +25°C° 0 mm 2 m/s 708 mmHg 41%
    05:00 +25°C° 0 mm 2 m/s 709 mmHg 42%
    06:00 +26°C° 0 mm 2 m/s 709 mmHg 44%
    07:00 +28°C° 0 mm 2 m/s 710 mmHg 39%
    08:00 +30°C° 0 mm 2 m/s 710 mmHg 35%
    09:00 +33°C° 0 mm 3 m/s 711 mmHg 30%
    10:00 +34°C° 0 mm 3 m/s 711 mmHg 28%
    11:00 +35°C° 0 mm 3 m/s 711 mmHg 27%
    12:00 +36°C° 0 mm 4 m/s 711 mmHg 25%
    13:00 +36°C° 0 mm 3 m/s 711 mmHg 27%
    14:00 +36°C° 0 mm 3 m/s 711 mmHg 29%
    15:00 +35°C° 0 mm 3 m/s 710 mmHg 30%
    16:00 +34°C° 0 mm 3 m/s 710 mmHg 38%
    17:00 +31°C° 0 mm 2 m/s 710 mmHg 46%
    18:00 +30°C° 0 mm 2 m/s 710 mmHg 54%
    19:00 +28°C° 0 mm 1 m/s 710 mmHg 57%
    20:00 +27°C° 0 mm 1 m/s 710 mmHg 60%
    21:00 +25°C° 0 mm 1 m/s 710 mmHg 62%
    22:00 +25°C° 0,1 mm 1 m/s 710 mmHg 62%
    23:00 +25°C° 0,1 mm 1 m/s 710 mmHg 61%

    27 Maio, Domingo

    Tempo Temperatura Precipitação Vento Pressão Humidade
    00:00 +25°C° 0,1 mm 1 m/s 710 mmHg 61%
    01:00 +25°C° 0,1 mm 1 m/s 710 mmHg 62%
    02:00 +24°C° 0,1 mm 1 m/s 710 mmHg 63%
    03:00 +24°C° 0,1 mm 1 m/s 710 mmHg 64%
    04:00 +24°C° 0,1 mm 1 m/s 710 mmHg 63%
    05:00 +25°C° 0,1 mm 2 m/s 710 mmHg 63%
    06:00 +25°C° 0,1 mm 2 m/s 710 mmHg 62%
    07:00 +27°C° 0 mm 2 m/s 711 mmHg 54%
    08:00 +29°C° 0 mm 2 m/s 711 mmHg 46%
    09:00 +30°C° 0 mm 2 m/s 711 mmHg 38%
    10:00 +33°C° 0 mm 3 m/s 711 mmHg 34%
    11:00 +34°C° 0 mm 3 m/s 711 mmHg 30%
    12:00 +36°C° 0 mm 4 m/s 711 mmHg 26%
    13:00 +36°C° 0 mm 4 m/s 710 mmHg 27%
    14:00 +36°C° 0 mm 4 m/s 710 mmHg 27%
    15:00 +36°C° 0 mm 4 m/s 709 mmHg 27%
    16:00 +34°C° 0 mm 4 m/s 709 mmHg 33%
    17:00 +32°C° 0 mm 4 m/s 709 mmHg 39%
    18:00 +30°C° 0 mm 3 m/s 709 mmHg 45%
    19:00 +28°C° 0 mm 3 m/s 708 mmHg 46%
    20:00 +27°C° 0 mm 3 m/s 708 mmHg 47%
    21:00 +26°C° 0 mm 2 m/s 708 mmHg 48%
    22:00 +25°C° 0 mm 3 m/s 708 mmHg 45%
    23:00 +25°C° 0 mm 3 m/s 707 mmHg 42%

    28 Maio, Segunda-feira

    Tempo Temperatura Precipitação Vento Pressão Humidade
    00:00 +25°C° 0 mm 3 m/s 707 mmHg 39%
    01:00 +24°C° 0 mm 3 m/s 707 mmHg 41%
    02:00 +24°C° 0 mm 2 m/s 707 mmHg 43%
    03:00 +23°C° 0 mm 2 m/s 707 mmHg 44%
    04:00 +24°C° 0,2 mm 2 m/s 707 mmHg 47%
    05:00 +24°C° 0,2 mm 2 m/s 707 mmHg 50%
    06:00 +24°C° 0,2 mm 2 m/s 708 mmHg 53%
    07:00 +26°C° 0,1 mm 3 m/s 708 mmHg 46%
    08:00 +29°C° 0,1 mm 3 m/s 708 mmHg 39%
    09:00 +32°C° 0,1 mm 4 m/s 708 mmHg 33%
    10:00 +33°C° 0 mm 5 m/s 708 mmHg 30%
    11:00 +35°C° 0 mm 5 m/s 708 mmHg 27%
    12:00 +36°C° 0 mm 6 m/s 708 mmHg 25%
    13:00 +35°C° 0 mm 6 m/s 708 mmHg 28%
    14:00 +34°C° 0 mm 6 m/s 707 mmHg 32%
    15:00 +34°C° 0 mm 6 m/s 707 mmHg 35%
    16:00 +30°C° 0 mm 5 m/s 707 mmHg 45%
    17:00 +28°C° 0 mm 4 m/s 707 mmHg 55%
    18:00 +26°C° 0 mm 3 m/s 706 mmHg 65%
    19:00 +24°C° 0 mm 3 m/s 707 mmHg 71%
    20:00 +21°C° 0 mm 3 m/s 707 mmHg 77%
    21:00 +20°C° 0 mm 3 m/s 707 mmHg 83%
    22:00 +19°C° 0 mm 2 m/s 707 mmHg 85%
    23:00 +19°C° 0 mm 2 m/s 707 mmHg 86%
    Mostrar mais